User: anonymous   Login
Location: Almena City Lake
(39.8850°N, 99.6804°W)
Time: 06:33:19
(UTC+00:00)
Language:

Cosmos 1833 Rocket - Orbit

View from above orbital plane
View from above orbital plane
View from above satellite
View from above satellite

Ground track
Ground track

The orbit data is extracted from the following two-line orbital elements,

1 17590U 87027B   20152.81445954 -.00000246  00000-0 -98838-4 0  9990
2 17590  71.0040  36.4483 0002869 103.1643 256.9800 14.16783800717033
Epoch (UTC): 31 May 2020 19:32:49
Eccentricity: 0.0002869
inclination: 71.0040°
perigee height: 834 km
apogee height: 838 km
right ascension of ascending node: 36.4483°
argument of perigee: 103.1643°
revolutions per day: 14.16783800
mean anomaly at epoch: 256.9800°
orbit number at epoch: 71703

The dashed part of the orbit path shows where the satellite is in the earth's shadow,  

DLR